Location: Newark
(33.6439°N, 114.9881°W)
Time: 00:35:42
(UTC+00:00)

Tiros 1 - Pass Details

Date: 24 July 2019
Orbit: 630 x 664 km, 48.4° (Epoch: 19 August)

Event Time Altitude Azimuth Distance (km) Brightness Sun altitude
Rises 16:54:06 0° 206° (SSW) 2,953 10.4 49.4°
Reaches altitude 10° 16:56:36 10° 197° (SSW) 2,051 9.8 49.9°
Maximum altitude 17:00:51 33° 133° (SE) 1,095 9.6 50.8°
Drops below altitude 10° 17:05:08 10° 70° (ENE) 2,074 10.5 51.7°
Sets 17:07:40 0° 61° (ENE) 2,992 11.0 52.2°
